User: anonymous
Location: Unspecified
(0.0000°N, 0.0000°E)
Time: 09:46:29
(UTC+00:00)
Language:

ASTRA 1KR - Orbit

View from above orbital plane
View from above orbital plane
View from above satellite
View from above satellite

Ground track
Ground track

The orbit data is extracted from the following two-line orbital elements,

1 29055U 06012A   14292.22962527  .00000109  00000-0  00000+0 0  1646
2 29055 000.0440 273.9725 0005376 304.7188 270.8066 01.00273430 31089
Epoch (UTC): 19 October 2014 05:30:39
Eccentricity: 0.0005376
inclination: 0.0440°
perigee height: 35763 km
apogee height: 35808 km
right ascension of ascending node: 273.9725°
argument of perigee: 304.7188°
revolutions per day: 1.00273430
mean anomaly at epoch: 270.8066°
orbit number at epoch: 3108

The dashed part of the orbit path shows where the satellite is in the earth's shadow,  

DLR